Tracking 21679 objects as of 30-Oct-2020
HD Live streaming from Space Station
objects crossing your sky now

FAST

Track FAST now!
10-day predictions
FAST is classified as:


NORAD ID: 24285
Int'l Code: 1996-049A
Perigee: 354.4 km
Apogee: 3,434.1 km
Inclination: 83.0 °
Period: 124.6 minutes
Semi major axis: 8265 km
RCS: 1.3393 m2 (large)
Launch date: August 21, 1996
Source: United States (US)
Launch site: AIR FORCE WESTERN TEST RANGE (AFWTR)

Designed to study Earth's aurora.
aabbcc
Your satellite tracking list
Your tracking list is empty




NASA's NSSDC Master Catalog

Two Line Element Set (TLE):
1 24285U 96049A   20304.10767304  .00001108  00000-0  90568-4 0  9998
2 24285  82.9573  70.6095 1863050 329.5121  20.9329 11.55368484992875
Source of the keplerian elements: AFSPC